Location: Kings Park
(40.8862°N, 73.2573°W)
Time: 09:36:57
(UTC+00:00)

MOS 1 Rocket - Pass Details

Date: 29 October 2020
Orbit: 615 x 829 km, 97.4° (Epoch: 23 November)

Event Time Altitude Azimuth Distance (km) Brightness Sun altitude
Rises 23:01:39 0° 22° (NNE) 3,075 6.3 -13.7°
Reaches altitude 10° 23:04:04 10° 32° (NNE) 2,188 5.5 -14.1°
Maximum altitude 23:08:23 33° 96° (E) 1,238 4.0 -14.9°
Drops below altitude 10° 23:12:55 10° 160° (SSE) 2,297 5.8 -15.8°
Sets 23:15:30 0° 170° (S) 3,252 6.7 -16.3°
